,,Stat6,,Stat2,,Stat8,,Stat9,,Stat10,,Wind1,,Wind1,
time,status,PA1M_AVG,status,PR1M_SUM,status,RH1M_AVG,status,SR1M_AVG,status,TA1M_AVG,status,W1dAve1m,status,W1sAve1m,
2005-05-01, 00:00:00,VALID,915.609,VALID,0,VALID,100,VALID,0.0509425,VALID,21.0335,VALID,66,VALID,0.804861,
2005-05-01, 00:01:00,VALID,915.6,VALID,0,VALID,100,VALID,0.0169808,VALID,21.0146,VALID,75,VALID,1.07049,
2005-05-01, 00:02:00,VALID,915.595,VALID,0,VALID,100,VALID,0.0169808,VALID,21.0211,VALID,94,VALID,1.02496,
2005-05-01, 00:03:00,VALID,915.578,VALID,0,VALID,100,VALID,0,VALID,21.0179,VALID,102,VALID,0.928013,
2005-05-01, 00:04:00,VALID,915.557,VALID,0,VALID,100,VALID,-0.0169808,VALID,21.0281,VALID,103,VALID,0.776786,
2005-05-01, 00:05:00,VALID,915.555,VALID,0,VALID,100,VALID,0,VALID,21.0052,VALID,101,VALID,0.79069,
2005-05-01, 00:06:00,VALID,915.543,VALID,0,VALID,100,VALID,0,VALID,20.9764,VALID,99,VALID,0.779726,
2005-05-01, 00:07:00,VALID,915.542,VALID,0,VALID,100,VALID,0,VALID,20.9339,VALID,105,VALID,0.605469,
2005-05-01, 00:08:00,VALID,915.521,VALID,0,VALID,100,VALID,0,VALID,20.915,VALID,106,VALID,0.866279,
2005-05-01, 00:09:00,VALID,915.486,VALID,0,VALID,100,VALID,0.0169808,VALID,20.8819,VALID,106,VALID,0.533067,
2005-05-01, 00:10:00,VALID,915.471,VALID,0,VALID,100,VALID,0,VALID,20.8496,VALID,117,VALID,0.434896,
2005-05-01, 00:11:00,VALID,915.467,VALID,0,VALID,100,VALID,0,VALID,20.8305,VALID,155,VALID,0.669457,
2005-05-01, 00:12:00,VALID,915.463,VALID,0,VALID,100,VALID,0.0169808,VALID,20.8402,VALID,154,VALID,0.697266,
2005-05-01, 00:13:00,VALID,915.467,VALID,0,VALID,100,VALID,0,VALID,20.8399,VALID,124,VALID,0.796693,
2005-05-01, 00:14:00,VALID,915.446,VALID,0,VALID,100,VALID,0.0339617,VALID,20.8502,VALID,118,VALID,0.37843,
2005-05-01, 00:15:00,VALID,915.426,VALID,0,VALID,100,VALID,0,VALID,20.8798,VALID,118,VALID,0.0143821,
2005-05-01, 00:16:00,VALID,915.391,VALID,0,VALID,100,VALID,-0.0169808,VALID,20.8792,VALID,118,VALID,0,
2005-05-01, 00:17:00,VALID,915.364,VALID,0,VALID,100,VALID,0,VALID,20.8504,VALID,118,VALID,0,
2005-05-01, 00:18:00,VALID,915.312,VALID,0,VALID,100,VALID,0,VALID,20.8558,VALID,119,VALID,0.196987,
2005-05-01, 00:19:00,VALID,915.306,VALID,0,VALID,100,VALID,0.0169808,VALID,20.8601,VALID,120,VALID,0.126272,
2005-05-01, 00:20:00,VALID,915.313,VALID,0,VALID,100,VALID,0,VALID,20.8434,VALID,120,VALID,0,
2005-05-01, 00:21:00,VALID,915.309,VALID,0,VALID,100,VALID,-0.0339617,VALID,20.8348,VALID,120,VALID,0,
2005-05-01, 00:22:00,VALID,915.307,VALID,0,VALID,100,VALID,-0.0169808,VALID,20.8251,VALID,120,VALID,0.158918,
2005-05-01, 00:23:00,VALID,915.31,VALID,0,VALID,100,VALID,-0.0679233,VALID,20.7963,VALID,120,VALID,0.49349,
2005-05-01, 00:24:00,VALID,915.288,VALID,0,VALID,100,VALID,-0.0339617,VALID,20.8937,VALID,120,VALID,0.171512,
2005-05-01, 00:25:00,VALID,915.263,VALID,0,VALID,100,VALID,-0.101885,VALID,20.9645,VALID,120,VALID,0.331473,
2005-05-01, 00:26:00,VALID,915.253,VALID,0,VALID,100,VALID,-0.0679233,VALID,20.9414,VALID,120,VALID,0.177144,
2005-05-01, 00:27:00,VALID,915.217,VALID,0,VALID,100,VALID,-0.0679233,VALID,20.9123,VALID,120,VALID,0,
2005-05-01, 00:28:00,VALID,915.19,VALID,0,VALID,100,VALID,-0.0169808,VALID,20.8873,VALID,120,VALID,0.00479403,
2005-05-01, 00:29:00,VALID,915.16,VALID,0,VALID,100,VALID,-0.101885,VALID,20.7968,VALID,119,VALID,0.411644,
2005-05-01, 00:30:00,VALID,915.108,VALID,0,VALID,100,VALID,-0.0849042,VALID,20.7774,VALID,121,VALID,0.420759,
2005-05-01, 00:31:00,VALID,915.088,VALID,0,VALID,100,VALID,-0.0509425,VALID,20.8057,VALID,77,VALID,0.387957,
2005-05-01, 00:32:00,VALID,915.048,VALID,0,VALID,100,VALID,-0.0849042,VALID,20.7292,VALID,29,VALID,0.833705,
2005-05-01, 00:33:00,VALID,915.015,VALID,0,VALID,100,VALID,-0.0849042,VALID,20.677,VALID,28,VALID,0.332919,
2005-05-01, 00:34:00,VALID,914.971,VALID,0,VALID,100,VALID,-0.0679233,VALID,20.7158,VALID,29,VALID,0.0104167,
2005-05-01, 00:35:00,VALID,914.934,VALID,0,VALID,100,VALID,-0.0509425,VALID,20.677,VALID,28,VALID,0.246189,
2005-05-01, 00:36:00,VALID,914.907,VALID,0,VALID,100,VALID,-0.0509425,VALID,20.6216,VALID,29,VALID,0.416101,
2005-05-01, 00:37:00,VALID,914.895,VALID,0,VALID,100,VALID,-0.0169808,VALID,20.6375,VALID,58,VALID,0.602604,
2005-05-01, 00:38:00,VALID,914.878,VALID,0,VALID,100,VALID,-0.0679233,VALID,20.9163,VALID,59,VALID,0.494474,
2005-05-01, 00:39:00,VALID,914.855,VALID,0,VALID,100,VALID,-0.0509425,VALID,21.1204,VALID,70,VALID,0.335938,
2005-05-01, 00:40:00,VALID,914.838,VALID,0,VALID,100,VALID,-0.0509425,VALID,21.0617,VALID,100,VALID,0.554087,
2005-05-01, 00:41:00,VALID,914.832,VALID,0,VALID,100,VALID,-0.0679233,VALID,20.9775,VALID,110,VALID,0.539807,
2005-05-01, 00:42:00,VALID,914.828,VALID,0,VALID,100,VALID,-0.0679233,VALID,20.7645,VALID,101,VALID,0.258575,
2005-05-01, 00:43:00,VALID,914.841,VALID,0,VALID,100,VALID,-0.0509425,VALID,20.522,VALID,77,VALID,0.156631,
2005-05-01, 00:44:00,VALID,914.85,VALID,0,VALID,100,VALID,-0.0679233,VALID,20.4964,VALID,78,VALID,0.40718,
2005-05-01, 00:45:00,VALID,914.865,VALID,0,VALID,100,VALID,-0.0679233,VALID,20.532,VALID,120,VALID,0.67152,
2005-05-01, 00:46:00,VALID,914.868,VALID,0,VALID,100,VALID,-0.0679233,VALID,20.5938,VALID,143,VALID,0.669965,
2005-05-01, 00:47:00,VALID,914.863,VALID,0,VALID,100,VALID,-0.0679233,VALID,20.6708,VALID,140,VALID,0.637251,
2005-05-01, 00:48:00,VALID,914.86,VALID,0,VALID,100,VALID,-0.0339617,VALID,20.7519,VALID,127,VALID,0.832508,
2005-05-01, 00:49:00,VALID,914.872,VALID,0,VALID,100,VALID,-0.0849042,VALID,20.8197,VALID,109,VALID,0.807292,
2005-05-01, 00:50:00,VALID,914.874,VALID,0,VALID,100,VALID,-0.0849042,VALID,20.8612,VALID,107,VALID,0.72603,
2005-05-01, 00:51:00,VALID,914.862,VALID,0,VALID,100,VALID,-0.0339617,VALID,20.9064,VALID,103,VALID,0.83631,
2005-05-01, 00:52:00,VALID,914.846,VALID,0,VALID,100,VALID,-0.0679233,VALID,20.9158,VALID,114,VALID,0.590909,
2005-05-01, 00:53:00,VALID,914.834,VALID,0,VALID,100,VALID,-0.0509425,VALID,20.9554,VALID,132,VALID,0.665365,
2005-05-01, 00:54:00,VALID,914.824,VALID,0,VALID,100,VALID,-0.0679233,VALID,20.9616,VALID,114,VALID,0.834077,
2005-05-01, 00:55:00,VALID,914.826,VALID,0,VALID,100,VALID,-0.0509425,VALID,20.9812,VALID,109,VALID,1.03023,
2005-05-01, 00:56:00,VALID,914.83,VALID,0,VALID,100,VALID,-0.0509425,VALID,20.9879,VALID,105,VALID,1.00614,
2005-05-01, 00:57:00,VALID,914.825,VALID,0,VALID,100,VALID,-0.0509425,VALID,20.9866,VALID,87,VALID,0.973845,
2005-05-01, 00:58:00,VALID,914.811,VALID,0,VALID,100,VALID,-0.0509425,VALID,20.9777,VALID,84,VALID,0.816679,
2005-05-01, 00:59:00,VALID,914.796,VALID,0,VALID,100,VALID,-0.0679233,VALID,20.9198,VALID,82,VALID,0.875347,
2005-05-01, 01:00:00,VALID,914.779,VALID,0,VALID,100,VALID,-0.101885,VALID,20.9325,VALID,103,VALID,0.809956,
2005-05-01, 01:01:00,VALID,914.764,VALID,0,VALID,100,VALID,-0.0679233,VALID,20.9325,VALID,98,VALID,0.598474,
2005-05-01, 01:02:01,VALID,914.766,VALID,0,VALID,99.8375,VALID,-0.101885,VALID,20.9072,VALID,72,VALID,0.695135,
2005-05-01, 01:03:00,VALID,914.752,VALID,0,VALID,99.5895,VALID,-0.0679233,VALID,20.8778,VALID,60,VALID,0.632031,
2005-05-01, 01:04:00,VALID,914.736,VALID,0,VALID,99.5298,VALID,-0.0849042,VALID,20.8587,VALID,48,VALID,0.736683,
2005-05-01, 01:05:00,VALID,914.732,VALID,0,VALID,99.573,VALID,-0.0849042,VALID,20.8523,VALID,42,VALID,0.811955,
2005-05-01, 01:06:00,VALID,914.727,VALID,0,VALID,99.5654,VALID,-0.0849042,VALID,20.8262,VALID,35,VALID,1.02569,
2005-05-01, 01:07:00,VALID,914.728,VALID,0,VALID,99.7256,VALID,-0.0849042,VALID,20.8038,VALID,33,VALID,0.921705,
2005-05-01, 01:08:01,VALID,914.734,VALID,0,VALID,99.9214,VALID,-0.0849042,VALID,20.8132,VALID,32,VALID,0.780692,
2005-05-01, 01:09:00,VALID,914.731,VALID,0,VALID,99.9074,VALID,-0.0849042,VALID,20.81,VALID,32,VALID,0.568824,
2005-05-01, 01:10:00,VALID,914.738,VALID,0,VALID,99.8795,VALID,-0.0849042,VALID,20.807,VALID,32,VALID,0.4375,
2005-05-01, 01:11:00,VALID,914.764,VALID,0,VALID,99.9761,VALID,-0.0679233,VALID,20.817,VALID,32,VALID,0.196007,
2005-05-01, 01:12:00,VALID,914.796,VALID,0,VALID,99.9341,VALID,-0.101885,VALID,20.8197,VALID,32,VALID,0,
2005-05-01, 01:13:00,VALID,914.821,VALID,0,VALID,99.9769,VALID,-0.0849042,VALID,20.8358,VALID,32,VALID,0,
2005-05-01, 01:14:00,VALID,914.863,VALID,0,VALID,100,VALID,-0.0849042,VALID,20.8649,VALID,32,VALID,0,
2005-05-01, 01:15:00,VALID,914.886,VALID,0,VALID,99.9537,VALID,-0.0849042,VALID,20.8848,VALID,32,VALID,0,
2005-05-01, 01:16:00,VALID,914.895,VALID,0,VALID,99.7307,VALID,-0.0509425,VALID,20.8525,VALID,32,VALID,0,
2005-05-01, 01:17:00,VALID,914.898,VALID,0,VALID,99.5819,VALID,-0.0509425,VALID,20.8194,VALID,32,VALID,0,
2005-05-01, 01:18:00,VALID,914.891,VALID,0,VALID,99.6925,VALID,-0.0849042,VALID,20.8167,VALID,17,VALID,0.202123,
2005-05-01, 01:19:01,VALID,914.88,VALID,0,VALID,99.8299,VALID,-0.101885,VALID,20.8299,VALID,6,VALID,0.140443,
2005-05-01, 01:20:00,VALID,914.882,VALID,0,VALID,99.9939,VALID,-0.0509425,VALID,20.8905,VALID,267,VALID,0.643293,
2005-05-01, 01:21:00,VALID,914.905,VALID,0,VALID,100,VALID,0.0169808,VALID,20.967,VALID,235,VALID,0.76883,
2005-05-01, 01:22:00,VALID,914.913,VALID,0,VALID,100,VALID,0.0339617,VALID,20.9923,VALID,228,VALID,0.711458,
2005-05-01, 01:23:00,VALID,914.911,VALID,0,VALID,100,VALID,0.0169808,VALID,20.996,VALID,212,VALID,0.497049,
2005-05-01, 01:24:01,VALID,914.92,VALID,0,VALID,100,VALID,0.0509425,VALID,21.0154,VALID,211,VALID,0.669207,
2005-05-01, 01:25:00,VALID,914.886,VALID,0,VALID,100,VALID,0,VALID,21.041,VALID,239,VALID,0.619234,
2005-05-01, 01:26:00,VALID,914.879,VALID,0,VALID,100,VALID,0,VALID,21.0507,VALID,231,VALID,0.791159,
2005-05-01, 01:27:01,VALID,914.862,VALID,0,VALID,100,VALID,0,VALID,21.0571,VALID,228,VALID,0.299543,
2005-05-01, 01:28:00,VALID,914.844,VALID,0,VALID,100,VALID,0.0339617,VALID,21.0773,VALID,227,VALID,0.275868,
2005-05-01, 01:29:01,VALID,914.812,VALID,0,VALID,100,VALID,0.0339617,VALID,21.0445,VALID,196,VALID,0.381483,
2005-05-01, 01:30:00,VALID,914.792,VALID,0,VALID,100,VALID,0.0339617,VALID,21.0219,VALID,196,VALID,0.1516,
2005-05-01, 01:31:00,VALID,914.768,VALID,0,VALID,100,VALID,0.0169808,VALID,21.0117,VALID,149,VALID,0.475142,
2005-05-01, 01:32:00,VALID,914.759,VALID,0,VALID,100,VALID,0.0679233,VALID,20.9729,VALID,120,VALID,0.556445,
2005-05-01, 01:33:00,VALID,914.733,VALID,0,VALID,100,VALID,0.0339617,VALID,20.9306,VALID,164,VALID,0.704942,
2005-05-01, 01:34:00,VALID,914.728,VALID,0,VALID,100,VALID,0.0509425,VALID,20.9471,VALID,158,VALID,0.538154,
2005-05-01, 01:35:00,VALID,914.707,VALID,0,VALID,100,VALID,0.0339617,VALID,20.9247,VALID,156,VALID,0.465021,
2005-05-01, 01:36:01,VALID,914.697,VALID,0,VALID,100,VALID,-0.0679233,VALID,20.9198,VALID,169,VALID,0.513626,
2005-05-01, 01:37:00,VALID,914.712,VALID,0,VALID,100,VALID,-0.0679233,VALID,20.9104,VALID,169,VALID,0.562109,
2005-05-01, 01:38:00,VALID,914.72,VALID,0,VALID,100,VALID,-0.0679233,VALID,20.9163,VALID,168,VALID,0.590402,
2005-05-01, 01:39:00,VALID,914.748,VALID,0,VALID,100,VALID,-0.0339617,VALID,20.9392,VALID,167,VALID,0.757813,
2005-05-01, 01:40:00,VALID,914.759,VALID,0,VALID,100,VALID,-0.0509425,VALID,20.9581,VALID,167,VALID,0.767933,
2005-05-01, 01:41:01,VALID,914.783,VALID,0,VALID,100,VALID,-0.0849042,VALID,20.9912,VALID,166,VALID,0.367369,
2005-05-01, 01:42:00,VALID,914.792,VALID,0,VALID,100,VALID,-0.0509425,VALID,21.01,VALID,160,VALID,0.657738,
2005-05-01, 01:43:01,VALID,914.782,VALID,0,VALID,100,VALID,-0.0509425,VALID,21.0517,VALID,157,VALID,0.33457,
2005-05-01, 01:44:01,VALID,914.792,VALID,0,VALID,100,VALID,-0.0509425,VALID,21.0972,VALID,157,VALID,0.448864,
2005-05-01, 01:45:00,VALID,914.775,VALID,0,VALID,100,VALID,-0.0169808,VALID,21.1554,VALID,157,VALID,0.335747,
2005-05-01, 01:46:00,VALID,914.765,VALID,0,VALID,100,VALID,-0.0509425,VALID,21.1815,VALID,163,VALID,0.309832,
2005-05-01, 01:47:01,VALID,914.759,VALID,0,VALID,99.9166,VALID,-0.0169808,VALID,21.21,VALID,163,VALID,0.0288194,
2005-05-01, 01:48:00,VALID,914.767,VALID,0,VALID,98.9232,VALID,-0.0849042,VALID,21.136,VALID,134,VALID,0.101563,
2005-05-01, 01:49:00,VALID,914.782,VALID,0,VALID,98.6129,VALID,-0.0679233,VALID,21.091,VALID,134,VALID,0,
2005-05-01, 01:50:00,VALID,914.777,VALID,0,VALID,98.8227,VALID,-0.0509425,VALID,21.0744,VALID,134,VALID,0.00101902,
2005-05-01, 01:51:00,VALID,914.775,VALID,0,VALID,98.9486,VALID,-0.0339617,VALID,21.0841,VALID,134,VALID,0,
2005-05-01, 01:52:01,VALID,914.76,VALID,0,VALID,98.8787,VALID,-0.0509425,VALID,21.091,VALID,134,VALID,0,
2005-05-01, 01:53:00,VALID,914.748,VALID,0,VALID,98.7566,VALID,-0.0679233,VALID,21.0943,VALID,134,VALID,0,
2005-05-01, 01:54:00,VALID,914.759,VALID,0,VALID,98.5506,VALID,-0.0509425,VALID,21.0719,VALID,134,VALID,0.109566,
2005-05-01, 01:55:01,VALID,914.731,VALID,0,VALID,98.6371,VALID,-0.0849042,VALID,21.049,VALID,134,VALID,0.126905,
2005-05-01, 01:56:01,VALID,914.736,VALID,0,VALID,98.7185,VALID,-0.0509425,VALID,21.0423,VALID,134,VALID,0,
2005-05-01, 01:57:01,VALID,914.724,VALID,0,VALID,98.4069,VALID,-0.0509425,VALID,21.0068,VALID,134,VALID,0.228646,
2005-05-01, 01:58:00,VALID,914.708,VALID,0,VALID,98.3077,VALID,-0.0509425,VALID,20.9583,VALID,134,VALID,0.225109,
2005-05-01, 01:59:00,VALID,914.684,VALID,0,VALID,98.7439,VALID,-0.101885,VALID,20.9486,VALID,132,VALID,0.46657,
2005-05-01, 02:00:01,VALID,914.662,VALID,0,VALID,98.8456,VALID,-0.0679233,VALID,20.9196,VALID,116,VALID,0.444922,
2005-05-01, 02:01:00,VALID,914.638,VALID,0,VALID,97.9886,VALID,-0.0849042,VALID,20.7839,VALID,114,VALID,0.325,
2005-05-01, 02:02:01,VALID,914.623,VALID,0,VALID,98.1043,VALID,-0.0339617,VALID,20.6937,VALID,114,VALID,0.29415,
2005-05-01, 02:03:00,VALID,914.617,VALID,0,VALID,98.7045,VALID,-0.101885,VALID,20.6622,VALID,113,VALID,0.302024,
2005-05-01, 02:04:00,VALID,914.61,VALID,0,VALID,99.3746,VALID,-0.0849042,VALID,20.6547,VALID,357,VALID,0.614524,
2005-05-01, 02:05:00,VALID,914.654,VALID,0,VALID,99.9563,VALID,-0.0679233,VALID,20.7037,VALID,316,VALID,0.455788,
2005-05-01, 02:06:01,VALID,914.663,VALID,0,VALID,100,VALID,0.0509425,VALID,20.6825,VALID,316,VALID,0.00568182,
2005-05-01, 02:07:00,VALID,914.667,VALID,0,VALID,100,VALID,0.0169808,VALID,20.7053,VALID,316,VALID,0.0196265,
2005-05-01, 02:08:00,VALID,914.666,VALID,0,VALID,100,VALID,0,VALID,20.6954,VALID,316,VALID,0.015253,
2005-05-01, 02:09:01,VALID,914.667,VALID,0,VALID,100,VALID,0.0339617,VALID,20.6924,VALID,317,VALID,0.301599,
2005-05-01, 02:10:01,VALID,914.651,VALID,0,VALID,100,VALID,0.0509425,VALID,20.6596,VALID,318,VALID,0.241787,
2005-05-01, 02:11:00,VALID,914.616,VALID,0,VALID,100,VALID,0.0339617,VALID,20.6375,VALID,321,VALID,0.363467,
2005-05-01, 02:12:01,VALID,914.581,VALID,0,VALID,100,VALID,0.0169808,VALID,20.6407,VALID,353,VALID,0.644817,
2005-05-01, 02:13:00,VALID,914.552,VALID,0,VALID,100,VALID,0.0339617,VALID,20.5893,VALID,10,VALID,0.862038,
2005-05-01, 02:14:00,VALID,914.531,VALID,0,VALID,100,VALID,0.0339617,VALID,20.5923,VALID,9,VALID,0.885742,
2005-05-01, 02:15:01,VALID,914.529,VALID,0,VALID,100,VALID,0.0339617,VALID,20.5861,VALID,2,VALID,0.772711,
2005-05-01, 02:16:01,VALID,914.523,VALID,0,VALID,100,VALID,0.0339617,VALID,20.5533,VALID,6,VALID,0.801781,
2005-05-01, 02:17:00,VALID,914.53,VALID,0,VALID,100,VALID,0.0169808,VALID,20.5371,VALID,13,VALID,1.14293,
2005-05-01, 02:18:01,VALID,914.541,VALID,0,VALID,100,VALID,0.0339617,VALID,20.521,VALID,13,VALID,1.27889,
2005-05-01, 02:19:01,VALID,914.532,VALID,0,VALID,100,VALID,0.0339617,VALID,20.5051,VALID,11,VALID,1.26267,
2005-05-01, 02:20:00,VALID,914.506,VALID,0,VALID,100,VALID,0,VALID,20.5215,VALID,13,VALID,1.47066,
2005-05-01, 02:21:00,VALID,914.48,VALID,0,VALID,100,VALID,-0.0679233,VALID,20.526,VALID,19,VALID,1.29092,
2005-05-01, 02:22:00,VALID,914.456,VALID,0,VALID,100,VALID,-0.101885,VALID,20.5158,VALID,22,VALID,1.26835,
2005-05-01, 02:23:00,VALID,914.444,VALID,0,VALID,100,VALID,-0.0849042,VALID,20.5096,VALID,16,VALID,1.02646,
2005-05-01, 02:24:00,VALID,914.428,VALID,0,VALID,100,VALID,-0.0509425,VALID,20.49,VALID,24,VALID,0.943026,
2005-05-01, 02:25:01,VALID,914.419,VALID,0,VALID,100,VALID,-0.0849042,VALID,20.4962,VALID,29,VALID,0.999186,
2005-05-01, 02:26:01,VALID,914.419,VALID,0,VALID,100,VALID,-0.0509425,VALID,20.4835,VALID,28,VALID,1.02024,
2005-05-01, 02:27:00,VALID,914.423,VALID,0,VALID,100,VALID,-0.0509425,VALID,20.5069,VALID,32,VALID,0.835574,
2005-05-01, 02:28:01,VALID,914.431,VALID,0,VALID,100,VALID,-0.0679233,VALID,20.5134,VALID,17,VALID,0.752725,
2005-05-01, 02:29:01,VALID,914.468,VALID,0,VALID,100,VALID,-0.0509425,VALID,20.5419,VALID,21,VALID,1.09635,
2005-05-01, 02:30:00,VALID,914.491,VALID,0,VALID,100,VALID,-0.0679233,VALID,20.5777,VALID,32,VALID,1.06055,
2005-05-01, 02:31:00,VALID,914.514,VALID,0,VALID,100,VALID,-0.0679233,VALID,20.5869,VALID,22,VALID,0.934956,
2005-05-01, 02:32:00,VALID,914.526,VALID,0,VALID,100,VALID,-0.0339617,VALID,20.6006,VALID,15,VALID,0.789648,
2005-05-01, 02:33:00,VALID,914.505,VALID,0,VALID,100,VALID,-0.0849042,VALID,20.6162,VALID,10,VALID,0.203869,
2005-05-01, 02:34:01,VALID,914.489,VALID,0,VALID,100,VALID,-0.0849042,VALID,20.6229,VALID,7,VALID,0.324219,
2005-05-01, 02:35:00,VALID,914.487,VALID,0,VALID,100,VALID,-0.0679233,VALID,20.6186,VALID,5,VALID,0.276042,
2005-05-01, 02:36:00,VALID,914.479,VALID,0,VALID,100,VALID,0.0679233,VALID,20.627,VALID,5,VALID,0.0217634,
2005-05-01, 02:37:01,VALID,914.485,VALID,0,VALID,100,VALID,0.0339617,VALID,20.6475,VALID,5,VALID,0,
2005-05-01, 02:38:00,VALID,914.477,VALID,0,VALID,100,VALID,0.0169808,VALID,20.6338,VALID,5,VALID,0,
2005-05-01, 02:39:00,VALID,914.476,VALID,0,VALID,100,VALID,0.0169808,VALID,20.6469,VALID,5,VALID,0,
2005-05-01, 02:40:00,VALID,914.468,VALID,0,VALID,100,VALID,0.0169808,VALID,20.6564,VALID,5,VALID,0.0580357,
2005-05-01, 02:41:01,VALID,914.478,VALID,0,VALID,100,VALID,0.0169808,VALID,20.6628,VALID,5,VALID,0.00334821,
2005-05-01, 02:42:00,VALID,914.476,VALID,0,VALID,100,VALID,0.0339617,VALID,20.6666,VALID,5,VALID,0.117543,
2005-05-01, 02:43:01,VALID,914.466,VALID,0,VALID,100,VALID,0,VALID,20.6537,VALID,5,VALID,0.000372024,
2005-05-01, 02:44:01,VALID,914.459,VALID,0,VALID,100,VALID,0,VALID,20.6499,VALID,5,VALID,0.000762195,
2005-05-01, 02:45:01,VALID,914.465,VALID,0,VALID,100,VALID,0.0339617,VALID,20.6633,VALID,12,VALID,0.337941,
2005-05-01, 02:46:00,VALID,914.467,VALID,0,VALID,100,VALID,0.0509425,VALID,20.6181,VALID,131,VALID,0.63742,
2005-05-01, 02:47:01,VALID,914.456,VALID,0,VALID,100,VALID,0.0679233,VALID,20.5786,VALID,135,VALID,0.6516,
2005-05-01, 02:48:01,VALID,914.439,VALID,0,VALID,100,VALID,0.0509425,VALID,20.5498,VALID,137,VALID,0.295945,
2005-05-01, 02:49:01,VALID,914.424,VALID,0,VALID,100,VALID,0.0849042,VALID,20.5205,VALID,137,VALID,0.247093,
2005-05-01, 02:50:00,VALID,914.401,VALID,0,VALID,100,VALID,-0.0169808,VALID,20.515,VALID,137,VALID,0.322976,
2005-05-01, 02:51:01,VALID,914.386,VALID,0,VALID,100,VALID,-0.0339617,VALID,20.4835,VALID,130,VALID,0.182091,
2005-05-01, 02:52:01,VALID,914.356,VALID,0,VALID,100,VALID,-0.0509425,VALID,20.4609,VALID,128,VALID,0.142442,
2005-05-01, 02:53:01,VALID,914.354,VALID,0,VALID,100,VALID,-0.0849042,VALID,20.4192,VALID,135,VALID,0.850446,
2005-05-01, 02:54:00,VALID,914.346,VALID,0,VALID,100,VALID,-0.0679233,VALID,20.3573,VALID,138,VALID,1.31879,
2005-05-01, 02:55:01,VALID,914.331,VALID,0,VALID,100,VALID,-0.0849042,VALID,20.3292,VALID,141,VALID,1.13455,
2005-05-01, 02:56:01,VALID,914.312,VALID,0,VALID,100,VALID,-0.101885,VALID,20.2997,VALID,154,VALID,1.10974,
2005-05-01, 02:57:01,VALID,914.319,VALID,0,VALID,100,VALID,-0.0849042,VALID,20.29,VALID,161,VALID,0.860828,
2005-05-01, 02:58:01,VALID,914.329,VALID,0,VALID,100,VALID,-0.0509425,VALID,20.2897,VALID,162,VALID,0.66806,
2005-05-01, 02:59:00,VALID,914.34,VALID,0,VALID,100,VALID,-0.0679233,VALID,20.2773,VALID,160,VALID,0.356027,
2005-05-01, 03:00:01,VALID,914.35,VALID,0,VALID,100,VALID,-0.0679233,VALID,20.2609,VALID,142,VALID,0.598899,
2005-05-01, 03:01:01,VALID,914.328,VALID,0,VALID,100,VALID,-0.0849042,VALID,20.2582,VALID,136,VALID,0.233994,
2005-05-01, 03:02:01,VALID,914.3,VALID,0,VALID,100,VALID,-0.0509425,VALID,20.2485,VALID,126,VALID,0.493786,
2005-05-01, 03:03:01,VALID,914.258,VALID,0,VALID,100,VALID,-0.0679233,VALID,20.252,VALID,120,VALID,0.765997,
2005-05-01, 03:04:01,VALID,914.223,VALID,0,VALID,100,VALID,-0.0679233,VALID,20.2515,VALID,114,VALID,1.00495,
2005-05-01, 03:05:01,VALID,914.199,VALID,0,VALID,100,VALID,-0.0679233,VALID,20.2348,VALID,110,VALID,0.357777,
2005-05-01, 03:06:01,VALID,914.174,VALID,0,VALID,100,VALID,-0.0849042,VALID,20.2485,VALID,113,VALID,0.606001,
2005-05-01, 03:07:01,VALID,914.157,VALID,0,VALID,100,VALID,-0.0679233,VALID,20.2415,VALID,121,VALID,1.09375,
2005-05-01, 03:08:01,VALID,914.152,VALID,0,VALID,100,VALID,-0.0849042,VALID,20.2413,VALID,112,VALID,0.87593,
2005-05-01, 03:09:00,VALID,914.166,VALID,0,VALID,100,VALID,-0.0339617,VALID,20.2256,VALID,105,VALID,0.832209,
2005-05-01, 03:10:01,VALID,914.157,VALID,0,VALID,100,VALID,-0.0679233,VALID,20.1928,VALID,95,VALID,0.756696,
2005-05-01, 03:11:01,VALID,914.162,VALID,0,VALID,100,VALID,-0.0849042,VALID,20.1742,VALID,77,VALID,0.798147,
2005-05-01, 03:12:00,VALID,914.167,VALID,0,VALID,100,VALID,-0.0849042,VALID,20.1449,VALID,73,VALID,0.792614,
2005-05-01, 03:13:01,VALID,914.141,VALID,0,VALID,100,VALID,-0.0509425,VALID,20.1153,VALID,80,VALID,0.464472,
2005-05-01, 03:14:01,VALID,914.161,VALID,0,VALID,100,VALID,-0.0849042,VALID,20.1191,VALID,80,VALID,0.126202,
2005-05-01, 03:15:01,VALID,914.159,VALID,0,VALID,100,VALID,-0.101885,VALID,20.1061,VALID,80,VALID,0.0421113,
2005-05-01, 03:16:01,VALID,914.197,VALID,0,VALID,100,VALID,-0.0339617,VALID,20.1059,VALID,80,VALID,0.0689538,
2005-05-01, 03:17:01,VALID,914.212,VALID,0,VALID,100,VALID,-0.0849042,VALID,20.1027,VALID,80,VALID,0.325994,
2005-05-01, 03:18:01,VALID,914.239,VALID,0,VALID,100,VALID,-0.0509425,VALID,20.1287,VALID,180,VALID,0.428445,
2005-05-01, 03:19:01,VALID,914.262,VALID,0,VALID,100,VALID,-0.0509425,VALID,20.1452,VALID,189,VALID,0.53125,
2005-05-01, 03:20:01,VALID,914.282,VALID,0,VALID,100,VALID,-0.0509425,VALID,20.1576,VALID,175,VALID,0.607813,
2005-05-01, 03:21:01,VALID,914.273,VALID,0,VALID,100,VALID,0.0169808,VALID,20.1792,VALID,161,VALID,0.545422,
2005-05-01, 03:22:01,VALID,914.261,VALID,0,VALID,100,VALID,0,VALID,20.1821,VALID,155,VALID,0.394804,
2005-05-01, 03:23:01,VALID,914.263,VALID,0,VALID,100,VALID,0.0509425,VALID,20.1824,VALID,129,VALID,0.272636,
2005-05-01, 03:24:01,VALID,914.272,VALID,0,VALID,100,VALID,0.0169808,VALID,20.1794,VALID,127,VALID,0.511719,
2005-05-01, 03:25:01,VALID,914.297,VALID,0,VALID,100,VALID,0.0339617,VALID,20.1464,VALID,126,VALID,0.451172,
2005-05-01, 03:26:01,VALID,914.297,VALID,0,VALID,100,VALID,0.0339617,VALID,20.1665,VALID,126,VALID,0.442454,
2005-05-01, 03:27:01,VALID,914.291,VALID,0,VALID,100,VALID,0,VALID,20.1662,VALID,126,VALID,0.267805,
2005-05-01, 03:28:01,VALID,914.277,VALID,0,VALID,100,VALID,0.0339617,VALID,20.1928,VALID,112,VALID,0.247024,
2005-05-01, 03:29:01,VALID,914.267,VALID,0,VALID,100,VALID,0.0169808,VALID,20.1759,VALID,53,VALID,0.752907,
2005-05-01, 03:30:01,VALID,914.244,VALID,0,VALID,100,VALID,0.0169808,VALID,20.1667,VALID,53,VALID,0.895433,
2005-05-01, 03:31:01,VALID,914.229,VALID,0,VALID,100,VALID,0.0169808,VALID,20.1305,VALID,53,VALID,0.741319,
2005-05-01, 03:32:01,VALID,914.211,VALID,0,VALID,100,VALID,0,VALID,20.1143,VALID,53,VALID,0.705208,
2005-05-01, 03:33:01,VALID,914.207,VALID,0,VALID,100,VALID,-0.0169808,VALID,20.089,VALID,53,VALID,0.677871,
2005-05-01, 03:34:01,VALID,914.187,VALID,0,VALID,100,VALID,0.0169808,VALID,20.0917,VALID,61,VALID,0.473011,
2005-05-01, 03:35:00,VALID,914.18,VALID,0,VALID,100,VALID,0,VALID,20.1533,VALID,62,VALID,0.361281,
2005-05-01, 03:36:00,VALID,914.179,VALID,0,VALID,100,VALID,0.0339617,VALID,20.1374,VALID,104,VALID,0.478906,
2005-05-01, 03:37:00,VALID,914.202,VALID,0,VALID,100,VALID,0,VALID,20.1213,VALID,132,VALID,0.486919,